Weather in Taloyoak

Canada     69°32′15″N   93°32′03″W
temp.,
°C
wind,
m/s
gust,
m/s
humid.,
%
clouds,
%
prec.,
mm/h
press.,
hPa
HPBL,
m
18 april, sun
sun1800:00−22nnw339478 0.0 102015
03:00−24nnw339740 0.0 102111
06:00−24nnw229914 0.0 102210
09:00−18nne11915 0.0 102256
12:00−15w118319 0.0 1021117
15:00−13nnw118020 0.0 1023101
18:00−15nw01855 0.0 10239
21:00−20nw119959 0.0 10249
19 april, mon
mon1900:00−23nne0010048 0.0 10249
03:00−25s1110065 0.0 10249
06:00−25sse1110063 0.0 102411
09:00−19sse1196100 0.0 102276
12:00−14ssw229288 0.0 1021159
15:00−9sw248995 0.0 1019300
18:00−9sw229393 0.1 101740
21:00−13sw229897 0.0 101510
20 april, tue
tue2000:00−14ssw119870 0.1 101410
03:00−18nne2210098 0.1 10139
06:00−19nne3310092 0.1 101328
09:00−13ene359316 0.0 1013162
12:00−11e458973 0.0 1013291
15:00−11e46897 0.0 1013285
18:00−14ese339339 0.0 101235
21:00−19ese2299100 0.0 101211
21 april, wed
wed2100:00−15ese2495100 0.0 100973
03:00−13ese3591100 0.0 1006149
06:00−11se4995100 1.3 1003306
09:00−9sse5994100 1.5 1000373
12:00−7s5692100 2.3 998383
15:00−4w238999 0.3 996415
18:00−11wnw71192100 0.5 997280
21:00−15w589592 0.0 99890
22 april, thu
thu2200:00−14wsw589596 0.1 998143
03:00−16wsw469686 0.1 99885
06:00−15sw369597 0.2 999160
09:00−13sw459181 0.1 1000350
12:00−12sw4582100 0.1 1002618
15:00−11ssw4482100 0.1 1004534
18:00−14s339387 0.1 100528
21:00−21se2210085 0.0 10079